Sigfox identifier Datetime Temperature Humidity SNR
002F1BE7 2019-04-23 15:02:03 16.2 31 19.8
002F1BE7 2019-04-23 14:26:59 16.1 31 19.7
002F1BE7 2019-04-23 13:51:55 16 31 19.4
002F1BE7 2019-04-23 13:16:52 16 31 19.3
002F1BE7 2019-04-23 12:41:47 15.9 31 19
002F1BE7 2019-04-23 12:06:43 15.9 31 18.8
002F1BE7 2019-04-23 11:31:39 15.8 31 18.4
002F1BE7 2019-04-23 10:56:34 15.8 31 18.2
002F1BE7 2019-04-23 10:21:31 15.8 31 17.7
002F1BE7 2019-04-23 09:46:29 15.8 31 17.9
002F1BE7 2019-04-23 09:11:28 15.8 31 17.2
002F1BE7 2019-04-23 08:36:25 15.8 31 16.9
002F1BE7 2019-04-23 08:01:23 15.8 31 16.9
002F1BE7 2019-04-23 07:26:21 15.8 31 16.9
002F1BE7 2019-04-23 06:51:18 15.8 31 16.7
002F1BE7 2019-04-23 06:16:15 15.8 31 16.7
002F1BE7 2019-04-23 05:41:14 15.8 31 16.7
002F1BE7 2019-04-23 05:06:09 15.8 31 16.6
002F1BE7 2019-04-23 04:31:07 15.8 30 16.8
002F1BE7 2019-04-23 03:56:03 15.8 30 16.8
002F1BE7 2019-04-23 03:21:00 15.8 30 16.7
002F1BE7 2019-04-23 02:45:57 15.8 30 19.3
002F1BE7 2019-04-23 02:10:53 15.8 30 19.3
002F1BE7 2019-04-23 01:35:50 15.8 30 19.3
002F1BE7 2019-04-23 01:00:47 15.8 30 19.2
002F1BE7 2019-04-23 00:25:45 15.9 30 19.1
002F1BE7 2019-04-22 23:50:41 16 30 19
002F1BE7 2019-04-22 23:15:37 16 30 19
002F1BE7 2019-04-22 22:40:32 16 30 19
002F1BE7 2019-04-22 22:05:27 16 30 19
002F1BE7 2019-04-22 21:30:23 16 30 19.1
002F1BE7 2019-04-22 20:55:20 16 30 19.3
002F1BE7 2019-04-22 20:20:16 16 30 19.3
002F1BE7 2019-04-22 19:45:12 16 30 19.4
002F1BE7 2019-04-22 19:10:08 16 30 19.3
002F1BE7 2019-04-22 18:35:04 16 30 19.3
002F1BE7 2019-04-22 17:59:59 16 30 19.4
002F1BE7 2019-04-22 17:24:55 16 30 19.3
002F1BE7 2019-04-22 16:49:51 16 30 19.3
002F1BE7 2019-04-22 16:14:47 16 30 19.5
002F1BE7 2019-04-22 15:39:43 15.9 30 19.5
002F1BE7 2019-04-22 15:04:40 15.9 30 19.5
002F1BE7 2019-04-22 14:29:35 15.9 30 19.6
002F1BE7 2019-04-22 13:54:32 15.8 30 19.7
002F1BE7 2019-04-22 13:19:27 15.8 30 19.7
002F1BE7 2019-04-22 12:44:23 15.8 30 19.7
002F1BE7 2019-04-22 12:09:19 15.8 30 17.5
002F1BE7 2019-04-22 11:34:16 15.8 30 17.5
002F1BE7 2019-04-22 10:59:13 15.8 30 17.5
002F1BE7 2019-04-22 10:24:08 15.8 30 17.5
002F1BE7 2019-04-22 09:49:05 15.8 30 17.5
002F1BE7 2019-04-22 09:13:59 15.8 30 17.5
002F1BE7 2019-04-22 08:38:55 15.8 30 17.6
002F1BE7 2019-04-22 08:03:50 15.8 30 17.6
002F1BE7 2019-04-22 07:28:47 15.8 30 17.6
002F1BE7 2019-04-22 06:53:43 15.8 30 17.3
002F1BE7 2019-04-22 06:18:40 15.8 30 17
002F1BE7 2019-04-22 05:43:36 15.8 30 16.9
002F1BE7 2019-04-22 05:08:35 15.6 30 16.8
002F1BE7 2019-04-22 04:33:29 15.7 30 16.8
002F1BE7 2019-04-22 03:58:25 15.7 30 17
002F1BE7 2019-04-22 03:23:22 15.6 30 16.9
002F1BE7 2019-04-22 02:48:18 15.7 30 16.7
002F1BE7 2019-04-22 02:13:14 15.6 30 16.7
002F1BE7 2019-04-22 01:38:10 15.6 30 16.4
002F1BE7 2019-04-22 01:03:06 15.6 29 16.3
002F1BE7 2019-04-22 00:28:02 15.6 29 16.2
002F1BE7 2019-04-21 23:52:59 15.6 29 15.9
002F1BE7 2019-04-21 23:17:56 15.6 29 15.8
002F1BE7 2019-04-21 22:42:53 15.6 29 15.8
002F1BE7 2019-04-21 22:07:51 15.6 29 15.6
002F1BE7 2019-04-21 21:32:47 15.6 29 15.6
002F1BE7 2019-04-21 20:57:44 15.6 29 15.6
002F1BE7 2019-04-21 20:22:40 15.6 29 15.6
002F1BE7 2019-04-21 19:47:38 15.6 29 15.6
002F1BE7 2019-04-21 19:12:36 15.6 29 15.9
002F1BE7 2019-04-21 18:37:30 15.6 29 15.9
002F1BE7 2019-04-21 18:02:26 15.6 29 16.2
002F1BE7 2019-04-21 17:27:22 15.6 29 16.2
002F1BE7 2019-04-21 16:52:18 15.6 29 16.3
002F1BE7 2019-04-21 16:17:14 15.6 29 16.6
002F1BE7 2019-04-21 15:42:10 15.6 29 16.9
002F1BE7 2019-04-21 15:07:08 15.6 29 17.2
002F1BE7 2019-04-21 14:32:01 15.6 29 17.2
002F1BE7 2019-04-21 13:56:58 15.6 29 17.2
002F1BE7 2019-04-21 13:21:54 15.6 29 17.1
002F1BE7 2019-04-21 12:46:53 15.6 29 17.1
002F1BE7 2019-04-21 12:11:47 15.6 29 17.1
002F1BE7 2019-04-21 11:36:44 15.7 29 17.1
002F1BE7 2019-04-21 11:01:41 15.7 29 17.1
002F1BE7 2019-04-21 10:26:36 15.8 29 17.1
002F1BE7 2019-04-21 09:51:32 15.8 29 17.1
002F1BE7 2019-04-21 09:16:29 15.8 29 17.2
002F1BE7 2019-04-21 08:41:25 15.8 29 17.1
002F1BE7 2019-04-21 08:06:22 15.8 29 17.1
002F1BE7 2019-04-21 07:31:18 15.8 29 17
002F1BE7 2019-04-21 06:56:15 15.8 29 17
002F1BE7 2019-04-21 06:21:12 15.8 29 16.9
002F1BE7 2019-04-21 05:46:08 15.8 29 16.8
002F1BE7 2019-04-21 05:11:05 15.8 28 16.9
002F1BE7 2019-04-21 04:36:00 15.8 28 16.7
002F1BE7 2019-04-21 04:00:57 15.8 28 16.6
002F1BE7 2019-04-21 03:25:54 15.8 28 16.4
002F1BE7 2019-04-21 02:50:53 15.8 28 16.4
002F1BE7 2019-04-21 02:15:51 15.7 28 16.2
002F1BE7 2019-04-21 01:40:48 15.8 28 16
002F1BE7 2019-04-21 01:05:45 15.7 28 15.8
002F1BE7 2019-04-21 00:30:41 15.8 28 15.6
002F1BE7 2019-04-20 23:55:38 15.7 28 15.6
002F1BE7 2019-04-20 23:20:35 15.7 28 15.6
002F1BE7 2019-04-20 22:45:31 15.8 28 15.6
002F1BE7 2019-04-20 22:10:29 15.7 28 15.7
002F1BE7 2019-04-20 21:35:26 15.8 28 15.9
002F1BE7 2019-04-20 21:00:23 15.7 28 16
002F1BE7 2019-04-20 20:25:19 15.8 28 16.1
002F1BE7 2019-04-20 19:50:16 15.8 28 16.2
002F1BE7 2019-04-20 19:15:13 15.8 28 16.3
002F1BE7 2019-04-20 18:40:10 15.8 28 16.4
002F1BE7 2019-04-20 18:05:06 15.8 28 16.6
002F1BE7 2019-04-20 17:30:03 15.8 28 16.6
002F1BE7 2019-04-20 16:55:00 15.8 28 16.8
002F1BE7 2019-04-20 16:19:56 15.8 28 16.8
002F1BE7 2019-04-20 15:44:53 15.7 28 16.8
002F1BE7 2019-04-20 15:09:51 15.8 28 16.9
002F1BE7 2019-04-20 14:34:47 15.8 28 16.9
002F1BE7 2019-04-20 13:59:43 15.8 28 16.8
002F1BE7 2019-04-20 13:24:39 15.8 28 16.8
002F1BE7 2019-04-20 12:49:34 15.8 28 16.8
002F1BE7 2019-04-20 12:14:30 15.8 28 16.7
002F1BE7 2019-04-20 11:39:26 15.8 27 16.7
002F1BE7 2019-04-20 11:04:22 15.8 27 16.7
002F1BE7 2019-04-20 10:29:18 15.8 27 16.7
002F1BE7 2019-04-20 09:54:13 15.9 27 16.6
002F1BE7 2019-04-20 09:19:10 15.9 27 16.7
002F1BE7 2019-04-20 08:44:06 16 27 16.6
002F1BE7 2019-04-20 08:09:02 16 27 16.6
002F1BE7 2019-04-20 07:33:58 16 27 16.5
002F1BE7 2019-04-20 06:58:53 16 27 16.5
002F1BE7 2019-04-20 06:23:48 16 27 16.4
002F1BE7 2019-04-20 05:48:43 16 27 16.5
002F1BE7 2019-04-20 05:13:39 16 27 16.5
002F1BE7 2019-04-20 04:38:36 16 27 16.5
002F1BE7 2019-04-20 04:03:35 16 27 16.4
002F1BE7 2019-04-20 03:28:31 16 27 16.2
002F1BE7 2019-04-20 02:53:26 16 27 16.4
002F1BE7 2019-04-20 02:18:23 16.2 27 16.4
002F1BE7 2019-04-20 01:43:19 16.1 27 16.5
002F1BE7 2019-04-20 01:08:17 16.2 27 16.5
002F1BE7 2019-04-20 00:33:15 16.3 27 16.6
002F1BE7 2019-04-19 23:58:13 16.3 27 16.8
002F1BE7 2019-04-19 23:23:09 16.3 27 17
002F1BE7 2019-04-19 22:48:07 16.3 27 17.1
002F1BE7 2019-04-19 22:13:05 16.3 27 17.2
002F1BE7 2019-04-19 21:38:03 16.3 27 17.4
002F1BE7 2019-04-19 21:03:00 16.3 27 17.6
002F1BE7 2019-04-19 20:27:56 16.3 27 17.8
002F1BE7 2019-04-19 19:52:52 16.3 27 18
002F1BE7 2019-04-19 19:17:48 16.3 27 18.2
002F1BE7 2019-04-19 18:42:44 16.3 27 18.2
002F1BE7 2019-04-19 18:07:40 16.3 27 18.4
002F1BE7 2019-04-19 17:32:38 16.3 27 18.5
002F1BE7 2019-04-19 16:57:33 16.3 27 18.6
002F1BE7 2019-04-19 16:22:31 16.3 27 18.6
002F1BE7 2019-04-19 15:47:27 16.3 26 18.5
002F1BE7 2019-04-19 15:12:23 16.1 26 18.6
002F1BE7 2019-04-19 14:37:19 16.1 26 18.6
002F1BE7 2019-04-19 14:02:15 16.1 26 18.7
002F1BE7 2019-04-19 13:27:10 16.1 26 18.8
002F1BE7 2019-04-19 12:52:06 16 26 18.8
002F1BE7 2019-04-19 12:17:02 16 26 18.8
002F1BE7 2019-04-19 11:41:57 16 26 18.7
002F1BE7 2019-04-19 11:06:53 16.1 26 18.8
002F1BE7 2019-04-19 10:31:47 16 26 18.8
002F1BE7 2019-04-19 09:56:43 16.1 26 18.8
002F1BE7 2019-04-19 09:21:37 16.1 26 18.7
002F1BE7 2019-04-19 08:46:32 16.1 26 19
002F1BE7 2019-04-19 08:11:27 16.2 26 19.2
002F1BE7 2019-04-19 07:36:22 16.2 26 19.5
002F1BE7 2019-04-19 07:01:17 16.3 26 19.6
002F1BE7 2019-04-19 06:26:11 16.3 26 19.9
002F1BE7 2019-04-19 05:51:05 16.3 26 20.2
002F1BE7 2019-04-19 05:16:00 16.3 26 20.4
002F1BE7 2019-04-19 04:40:55 16.3 26 20.6
002F1BE7 2019-04-19 04:05:50 16.3 26 20.8
002F1BE7 2019-04-19 03:30:46 16.4 26 20.8
002F1BE7 2019-04-19 02:55:42 16.5 25 20.8
002F1BE7 2019-04-19 02:20:37 16.5 25 20.9
002F1BE7 2019-04-19 01:45:34 16.5 25 20.9
002F1BE7 2019-04-19 01:10:27 16.5 25 21
002F1BE7 2019-04-19 00:35:22 16.7 25 21.2
002F1BE7 2019-04-19 00:00:16 16.7 25 21.4
002F1BE7 2019-04-18 23:25:12 16.7 25 21.3
002F1BE7 2019-04-18 22:50:07 16.7 25 21.6
002F1BE7 2019-04-18 22:15:02 16.7 25 21.7
002F1BE7 2019-04-18 21:39:57 16.7 25 21.7
002F1BE7 2019-04-18 21:04:53 16.7 25 21.9
002F1BE7 2019-04-18 20:29:50 16.7 25 22
002F1BE7 2019-04-18 19:54:46 16.7 25 22
002F1BE7 2019-04-18 19:19:44 16.7 25 22.1
002F1BE7 2019-04-18 18:44:41 16.7 25 22.2
002F1BE7 2019-04-18 18:09:36 16.7 25 22.1
002F1BE7 2019-04-18 17:34:34 16.7 25 22
002F1BE7 2019-04-18 16:59:31 16.6 25 21.9
002F1BE7 2019-04-18 16:24:29 16.5 25 21.9
002F1BE7 2019-04-18 15:49:26 16.5 25 21.8
002F1BE7 2019-04-18 15:14:23 16.5 25 21.6
002F1BE7 2019-04-18 14:39:19 16.5 25 21.5
002F1BE7 2019-04-18 14:04:16 16.5 25 21.4
002F1BE7 2019-04-18 13:29:13 16.5 25 21.3
002F1BE7 2019-04-18 12:54:09 16.5 25 21.4
002F1BE7 2019-04-18 12:19:06 16.5 24 21.5
002F1BE7 2019-04-18 11:44:01 16.5 24 21.5
002F1BE7 2019-04-18 11:08:55 16.5 24 21.5
002F1BE7 2019-04-18 10:33:51 16.5 24 21.8
002F1BE7 2019-04-18 09:58:47 16.5 24 21.7
002F1BE7 2019-04-18 09:23:44 16.5 24 21.7
002F1BE7 2019-04-18 08:48:39 16.5 24 21.7
002F1BE7 2019-04-18 08:13:37 16.5 24 21.6
002F1BE7 2019-04-18 07:38:33 16.5 24 21.7
002F1BE7 2019-04-18 07:03:29 16.5 24 21.8
002F1BE7 2019-04-18 06:28:26 16.5 24 21.8
002F1BE7 2019-04-18 05:53:23 16.5 24 21.6
002F1BE7 2019-04-18 05:18:20 16.5 24 21.6
002F1BE7 2019-04-18 04:43:16 16.5 24 21.8
002F1BE7 2019-04-18 04:08:13 16.6 24 22
002F1BE7 2019-04-18 03:33:09 16.7 24 21.9
002F1BE7 2019-04-18 02:58:06 16.7 24 21.9
002F1BE7 2019-04-18 02:23:02 16.8 24 21.9
002F1BE7 2019-04-18 01:47:58 16.9 23 21.9
002F1BE7 2019-04-18 01:12:55 16.9 23 21.8
002F1BE7 2019-04-18 00:37:51 16.9 23 21.9
002F1BE7 2019-04-18 00:02:47 17 23 21.9
002F1BE7 2019-04-17 23:27:43 17 23 21.8
002F1BE7 2019-04-17 22:52:38 17 23 21.7
002F1BE7 2019-04-17 22:17:35 17.1 23 21.5
002F1BE7 2019-04-17 21:42:31 17 23 21.5
002F1BE7 2019-04-17 21:07:26 17 23 21.5
002F1BE7 2019-04-17 20:32:22 17.1 23 21.5
002F1BE7 2019-04-17 19:57:17 17.1 23 22.3
002F1BE7 2019-04-17 19:22:13 17.1 23 22.3
002F1BE7 2019-04-17 18:47:09 17.1 23 22.3
002F1BE7 2019-04-17 18:12:05 17.1 23 22.3
002F1BE7 2019-04-17 17:37:01 17.1 23 22.3
002F1BE7 2019-04-17 17:01:58 17.1 23 23
002F1BE7 2019-04-17 16:26:55 17.2 23 22.9
002F1BE7 2019-04-17 15:51:52 17.3 23 23
002F1BE7 2019-04-17 15:16:50 17.3 22 23.1
002F1BE7 2019-04-17 14:41:47 17.3 22 22.8
002F1BE7 2019-04-17 14:06:42 17.5 22 22.6
002F1BE7 2019-04-17 13:31:39 17.5 22 22.7
002F1BE7 2019-04-17 12:56:36 17.5 22 22.7
002F1BE7 2019-04-17 12:21:31 17.5 22 22.7
002F1BE7 2019-04-17 11:46:27 17.5 22 22.6
002F1BE7 2019-04-17 11:11:22 17.5 22 22.5
002F1BE7 2019-04-17 10:36:18 17.5 22 22.4
002F1BE7 2019-04-17 10:01:15 17.6 22 22.3
002F1BE7 2019-04-17 09:26:13 17.8 22 22.2
002F1BE7 2019-04-17 08:51:09 17.9 22 22.1
002F1BE7 2019-04-17 08:16:06 18 22 22.1
002F1BE7 2019-04-17 07:41:02 18 22 22
002F1BE7 2019-04-17 07:06:00 18.2 22 21.9
002F1BE7 2019-04-17 06:30:56 18.2 22 22.1
002F1BE7 2019-04-17 05:55:53 18.2 22 21
002F1BE7 2019-04-17 05:20:50 18.4 22 20.9
002F1BE7 2019-04-17 04:45:47 18.4 21 20.8
002F1BE7 2019-04-17 04:10:43 18.4 21 20.6
002F1BE7 2019-04-17 03:35:40 18.6 21 20.5
002F1BE7 2019-04-17 03:00:36 18.6 21 18.6
002F1BE7 2019-04-17 02:25:34 18.6 21 18.3
002F1BE7 2019-04-17 01:50:31 18.6 21 18
002F1BE7 2019-04-17 01:15:28 18.8 21 17.8
002F1BE7 2019-04-17 00:40:26 18.8 21 17.4
002F1BE7 2019-04-17 00:05:25 18.9 21 17.2
002F1BE7 2019-04-16 23:30:21 19 21 16.9
002F1BE7 2019-04-16 22:55:19 19.2 21 16.7
002F1BE7 2019-04-16 22:20:14 19.3 21 16.6
002F1BE7 2019-04-16 21:45:10 19.5 21 16.5
002F1BE7 2019-04-16 21:10:07 19.5 21 16.7
002F1BE7 2019-04-16 20:35:02 19.7 21 16.9
002F1BE7 2019-04-16 19:59:59 19.7 21 16.8
002F1BE7 2019-04-16 19:24:56 19.9 21 16.7
002F1BE7 2019-04-16 18:49:53 19.9 20 16.7
002F1BE7 2019-04-16 18:14:51 20.1 20 16.8
002F1BE7 2019-04-16 17:39:49 20.3 20 17.1
002F1BE7 2019-04-16 17:04:46 20.4 20 17.2
002F1BE7 2019-04-16 16:29:42 20.6 20 17.1
002F1BE7 2019-04-16 15:54:38 20.7 20 15.9
002F1BE7 2019-04-16 15:19:35 21 20 15.5
002F1BE7 2019-04-16 14:44:32 21.2 21 15.8
002F1BE7 2019-04-16 13:34:29 21.2 21 15.7
002F1BE7 2019-04-16 12:59:24 21.2 21 16.3
002F1BE7 2019-04-16 12:24:20 21.2 21 16.4
002F1BE7 2019-04-16 11:49:15 21.2 21 16.4
002F1BE7 2019-04-16 11:14:10 21 21 16.9
002F1BE7 2019-04-16 10:39:10 21 21 17
002F1BE7 2019-04-16 10:04:01 21 21 17.3
002F1BE7 2019-04-16 09:28:57 21 21 17.3
002F1BE7 2019-04-16 08:53:55 21 21 17.4
002F1BE7 2019-04-16 08:18:54 21 21 17.6
002F1BE7 2019-04-16 07:43:49 21.1 21 17.7
002F1BE7 2019-04-16 07:08:45 21.1 20 17.5
002F1BE7 2019-04-16 06:33:41 21.1 20 17.4
002F1BE7 2019-04-16 05:58:36 21.1 20 17.6
002F1BE7 2019-04-16 05:23:34 21.1 20 17.4
002F1BE7 2019-04-16 04:48:31 21.1 20 17.4
002F1BE7 2019-04-16 04:13:29 21.2 20 17.4
002F1BE7 2019-04-16 03:38:26 21.2 20 17.8
002F1BE7 2019-04-16 03:03:23 21.2 20 17.9
002F1BE7 2019-04-16 02:28:21 21.2 20 17.5
002F1BE7 2019-04-16 01:53:16 21.2 20 18.1
002F1BE7 2019-04-16 01:18:12 21.2 20 18.8
002F1BE7 2019-04-16 00:43:08 21.2 20 19.4
002F1BE7 2019-04-16 00:08:05 21.2 20 19.7
002F1BE7 2019-04-15 23:33:01 21.2 20 20.1
002F1BE7 2019-04-15 22:57:58 21.3 20 20.9
002F1BE7 2019-04-15 22:22:53 21.2 19 21.2
002F1BE7 2019-04-15 21:47:49 21.4 19 21.5
002F1BE7 2019-04-15 21:12:43 21.4 19 21.8
002F1BE7 2019-04-15 20:37:41 21.4 19 22.2
002F1BE7 2019-04-15 20:02:36 21.4 19 22.4
002F1BE7 2019-04-15 19:27:33 21.4 19 22.6
002F1BE7 2019-04-15 18:52:31 21.5 19 22.8
002F1BE7 2019-04-15 18:17:25 21.6 19 23
002F1BE7 2019-04-15 17:42:21 21.6 19 23.1
002F1BE7 2019-04-15 17:07:17 21.7 19 23.4
002F1BE7 2019-04-15 16:32:15 21.8 18 23.9
002F1BE7 2019-04-15 15:57:12 21.8 18 24
002F1BE7 2019-04-15 15:22:05 22 18 24.1
002F1BE7 2019-04-15 14:47:02 22 18 24.4
002F1BE7 2019-04-15 14:12:03 22.2 18 24.6
002F1BE7 2019-04-15 13:36:56 22.3 17 24.7
002F1BE7 2019-04-15 13:01:55 22.5 17 24.8
002F1BE7 2019-04-15 12:26:49 22.5 17 25
002F1BE7 2019-04-15 11:51:45 22.5 15 25.1
002F1BE7 2019-04-15 11:16:41 22.5 16 25.1
002F1BE7 2019-04-15 10:41:37 22.5 16 25.1
002F1BE7 2019-04-15 10:06:33 22.3 16 25.5
002F1BE7 2019-04-15 09:31:30 22.2 17 25.6
002F1BE7 2019-04-15 08:56:27 22.2 16 25.4
002F1BE7 2019-04-15 08:21:23 22.1 16 25.4
002F1BE7 2019-04-15 07:46:19 22 16 25.3
002F1BE7 2019-04-15 07:11:14 22 16 25.4
002F1BE7 2019-04-15 06:36:10 22 17 25.4
002F1BE7 2019-04-15 06:01:06 22 17 25.3
002F1BE7 2019-04-15 05:26:04 22 17 25.3
002F1BE7 2019-04-15 04:50:59 21.9 17 25.4
002F1BE7 2019-04-15 04:15:56 22 17 25.4
002F1BE7 2019-04-15 03:40:53 22 17 25.4
002F1BE7 2019-04-15 03:05:49 22 17 25.4
002F1BE7 2019-04-15 02:30:45 22 17 25.3
002F1BE7 2019-04-15 01:55:42 21.9 17 25.3
002F1BE7 2019-04-15 01:20:39 22 17 25.2
002F1BE7 2019-04-15 00:45:35 22 17 25.2
002F1BE7 2019-04-15 00:10:32 22 17 25.2
002F1BE7 2019-04-14 23:35:27 22 17 25.2
002F1BE7 2019-04-14 23:00:23 22 17 25.2
002F1BE7 2019-04-14 22:25:18 22 17 25.2
002F1BE7 2019-04-14 21:50:14 22 18 25.2
002F1BE7 2019-04-14 21:15:10 22.1 18 25.2
002F1BE7 2019-04-14 20:40:05 22.2 18 25.2
002F1BE7 2019-04-14 20:05:01 22.2 18 25.2
002F1BE7 2019-04-14 19:29:56 22.2 18 24.8
002F1BE7 2019-04-14 18:54:52 22.2 18 24.8
002F1BE7 2019-04-14 18:19:47 22 18 24.9
002F1BE7 2019-04-14 17:44:43 22 17 25.3
002F1BE7 2019-04-14 17:09:39 22 17 25.3
002F1BE7 2019-04-14 16:34:36 22 17 25.3
002F1BE7 2019-04-14 15:59:32 22 17 25.3
002F1BE7 2019-04-14 15:24:28 22 18 25.4
002F1BE7 2019-04-14 14:49:24 22 18 25.4
002F1BE7 2019-04-14 14:14:20 22 18 25.4
002F1BE7 2019-04-14 13:39:15 22 18 25.3
002F1BE7 2019-04-14 13:04:10 22 18 25.3
002F1BE7 2019-04-14 12:29:04 22 18 25.3
002F1BE7 2019-04-14 11:54:00 22 18 25.6
002F1BE7 2019-04-14 11:18:55 22 18 25.5
002F1BE7 2019-04-14 10:43:50 22 18 25.5
002F1BE7 2019-04-14 10:08:46 22 18 25.6
002F1BE7 2019-04-14 09:33:41 22 18 25.6
002F1BE7 2019-04-14 08:58:37 22 18 25.6
002F1BE7 2019-04-14 08:23:31 22 18 25.6
002F1BE7 2019-04-14 07:48:25 22 18 25.7
002F1BE7 2019-04-14 07:13:20 22 17 25.7
002F1BE7 2019-04-14 06:38:15 22 17 25.7
002F1BE7 2019-04-14 06:03:09 22 17 25.6
002F1BE7 2019-04-14 05:28:03 22 17 25.6
002F1BE7 2019-04-14 04:52:57 22 17 25.6
002F1BE7 2019-04-14 04:17:50 22 17 25.5
002F1BE7 2019-04-14 03:42:44 22 17 25.5
002F1BE7 2019-04-14 03:07:40 22 17 25.1
002F1BE7 2019-04-14 02:32:35 22.1 17 25.1
002F1BE7 2019-04-14 01:57:30 22 17 25.1
002F1BE7 2019-04-14 01:22:25 22.1 17 24.9
002F1BE7 2019-04-14 00:47:21 22.1 17 24.9
002F1BE7 2019-04-14 00:12:16 22.2 17 24.8
002F1BE7 2019-04-13 23:37:11 22.2 17 24.8
002F1BE7 2019-04-13 23:02:07 22.2 17 25
002F1BE7 2019-04-13 22:27:03 22.2 17 25
002F1BE7 2019-04-13 21:51:58 22.2 17 24.9
002F1BE7 2019-04-13 21:16:53 22.2 17 24.8
002F1BE7 2019-04-13 20:41:49 22.2 17 24.8
002F1BE7 2019-04-13 20:06:44 22.2 17 24.9
002F1BE7 2019-04-13 19:31:38 22.2 17 24.7
002F1BE7 2019-04-13 18:56:33 22.3 17 24.7
002F1BE7 2019-04-13 18:21:27 22.4 17 24.7
002F1BE7 2019-04-13 17:46:21 22.3 17 24.8
002F1BE7 2019-04-13 17:11:16 22.5 17 24.8
002F1BE7 2019-04-13 16:36:11 22.5 17 24.7
002F1BE7 2019-04-13 16:01:07 22.5 17 24.6
002F1BE7 2019-04-13 15:26:02 22.5 17 24.8
002F1BE7 2019-04-13 14:50:56 22.5 17 24.8
002F1BE7 2019-04-13 14:15:52 22.5 17 24.8
002F1BE7 2019-04-13 13:40:49 22.5 17 24.8
002F1BE7 2019-04-13 13:05:44 22.5 17 24.8
002F1BE7 2019-04-13 12:30:40 22.5 17 24.8
002F1BE7 2019-04-13 11:55:36 22.5 17 24.8
002F1BE7 2019-04-13 11:20:32 22.5 17 24.8
002F1BE7 2019-04-13 10:45:26 22.5 17 24.9
002F1BE7 2019-04-13 10:10:21 22.5 17 24.9
002F1BE7 2019-04-13 09:35:17 22.5 17 25
002F1BE7 2019-04-13 09:00:13 22.5 17 25.1
002F1BE7 2019-04-13 08:25:09 22.5 17 25.2
002F1BE7 2019-04-13 07:50:05 22.5 17 25.1
002F1BE7 2019-04-13 07:15:01 22.5 17 25.1
002F1BE7 2019-04-13 06:39:55 22.5 17 25
002F1BE7 2019-04-13 06:04:50 22.5 17 25
002F1BE7 2019-04-13 05:29:46 22.5 17 25
002F1BE7 2019-04-13 04:54:39 22.5 17 25.5
002F1BE7 2019-04-13 04:19:33 22.5 17 25.8
002F1BE7 2019-04-13 03:44:28 22.5 17 25.8
002F1BE7 2019-04-13 03:09:22 22.6 17 25.8
002F1BE7 2019-04-13 02:34:17 22.6 17 25.8
002F1BE7 2019-04-13 01:59:12 22.6 17 25.9
002F1BE7 2019-04-13 01:24:07 22.7 17 26
002F1BE7 2019-04-13 00:49:01 22.7 17 25.9
002F1BE7 2019-04-13 00:13:55 22.7 17 26
002F1BE7 2019-04-12 23:38:49 22.7 17 26.1
002F1BE7 2019-04-12 23:03:42 22.8 17 26.1
002F1BE7 2019-04-12 22:28:37 22.9 18 26.2
002F1BE7 2019-04-12 21:53:31 22.9 18 26.3
002F1BE7 2019-04-12 21:18:24 22.9 18 26.4
002F1BE7 2019-04-12 20:43:17 22.9 18 26.5
002F1BE7 2019-04-12 20:08:10 22.9 17 26.6
002F1BE7 2019-04-12 19:33:03 23 17 26.7
002F1BE7 2019-04-12 18:57:56 23.1 17 26.8
002F1BE7 2019-04-12 18:22:49 23.1 16 26.7
002F1BE7 2019-04-12 17:47:41 23.3 16 26.8
002F1BE7 2019-04-12 17:12:35 23.3 17 27
002F1BE7 2019-04-12 16:37:28 23.3 17 27.4
002F1BE7 2019-04-12 16:02:23 23.2 17 27.8
002F1BE7 2019-04-12 15:27:16 23.1 17 28.4
002F1BE7 2019-04-12 14:52:10 22.9 18 29
002F1BE7 2019-04-12 14:17:04 22.5 17 28.4
002F1BE7 2019-04-12 13:41:59 22 19 25.8
002F1BE7 2019-04-12 13:06:54 21 20 0